MAKIL Weather Reports


time (UTC)temp
C
wind
direction
speed
KPH
gust
KPH
rain 1hr
cm
rain 24hr
cm
rain mn
cm
humidity
%
barometer
mb
20260508114730 8 244 19.3 25.7 0.00 0.00 0.00 66
20260508112731 8 240 22.5 27.4 0.00 0.00 0.00 67
20260508110731 9 232 20.9 25.7 0.00 0.00 0.00 64
20260508104730 7 220 17.7 22.5 0.00 0.00 0.00 65
20260508102729 8 214 19.3 24.1 0.00 0.00 0.00 62
20260508100730 7 219 16.1 20.9 0.00 0.00 0.00 65
20260508094730 8 208 17.7 20.9 0.00 0.00 0.00 57
20260508092730 9 204 16.1 22.5 0.00 0.00 0.00 53
20260508090730 8 201 14.5 19.3 0.00 0.00 0.00 56
20260508084730 9 201 12.9 17.7 0.00 0.00 0.00 54
20260508082729 8 189 11.3 14.5 0.00 0.00 0.00 53
20260508080730 8 168 9.7 14.5 0.00 0.00 0.00 61
20260508074730 10 41 11.3 17.7 0.00 0.00 0.00 48
20260508072729 9 339 12.9 17.7 0.00 0.00 0.00 60
20260508070730 8 305 6.4 9.7 0.00 0.00 0.00 63
20260508064729 8 312 11.3 12.9 0.00 0.00 0.00 61
20260508062729 7 308 11.3 12.9 0.00 0.00 0.00 62
20260508054729 6 318 11.3 12.9 0.00 0.00 0.00 62
20260508052730 7 328 12.9 14.5 0.00 0.00 0.00 60
20260508050729 6 342 14.5 16.1 0.00 0.00 0.00 60
20260508044730 7 5 12.9 16.1 0.00 0.00 0.00 56
20260508042729 7 2 12.9 16.1 0.00 0.00 0.00 56
20260508040729 6 9 17.7 20.9 0.00 0.00 0.00 58
20260508034729 6 8 17.7 20.9 0.00 0.00 0.00 60
20260508032729 6 10 16.1 20.9 0.00 0.00 0.00 61
20260508030729 5 7 16.1 19.3 0.00 0.00 0.00 63
20260508024728 5 3 17.7 20.9 0.00 0.00 0.00 62
20260508022728 3 2 16.1 20.9 0.00 0.00 0.00 69
20260508020729 3 13 17.7 22.5 0.00 0.00 0.00 68
20260508014728 4 6 19.3 24.1 0.00 0.00 0.00 66
20260508012728 4 4 17.7 25.7 0.00 0.00 0.00 68
20260508010728 5 359 19.3 27.4 0.00 0.00 0.00 65
20260508004728 5 355 22.5 29.0 0.00 0.00 0.00 63
20260508002728 5 354 22.5 27.4 0.00 0.00 0.00 64
20260508000729 6 346 27.4 32.2 0.00 0.00 0.00 63
20260507234729 6 347 27.4 33.8 0.00 0.00 0.00 63
20260507232728 6 352 27.4 32.2 0.00 0.00 0.00 57
20260507230728 6 349 27.4 32.2 0.00 0.00 0.00 60
20260507224727 6 347 24.1 29.0 0.00 0.00 0.00 64
20260507222728 6 346 24.1 29.0 0.00 0.00 0.00 60
20260507220728 6 342 25.7 27.4 0.00 0.00 0.00 64
20260507214728 6 336 27.4 29.0 0.00 0.00 0.00 62
20260507210727 6 338 27.4 30.6 0.00 0.00 0.00 65
20260507204728 6 338 27.4 30.6 0.00 0.00 0.00 68
20260507202727 6 340 30.6 35.4 0.00 0.00 0.00 62
20260507200728 5 317 19.3 24.1 0.00 0.00 0.00 84
20260507194727 6 280 14.5 14.5 0.00 0.00 0.00 78
20260507192727 6 260 16.1 17.7 0.00 0.00 0.00 70
20260507190727 7 231 16.1 19.3 0.00 0.00 0.00 57
20260507184727 7 240 20.9 24.1 0.00 0.00 0.00 61
20260507182726 7 244 19.3 24.1 0.00 0.00 0.00 67
20260507180726 7 246 22.5 27.4 0.00 0.00 0.00 68
20260507174727 7 250 22.5 24.1 0.00 0.00 0.00 70
20260507172726 7 247 17.7 24.1 0.00 0.00 0.00 66
20260507170726 8 247 19.3 24.1 0.00 0.00 0.00 61
20260507164727 8 250 22.5 25.7 0.00 0.00 0.00 61
20260507162727 8 253 19.3 22.5 0.00 0.00 0.00 59
20260507160727 8 249 16.1 20.9 0.00 0.00 0.00 61
20260507154726 8 233 12.9 16.1 0.00 0.00 0.00 61
20260507152726 8 226 12.9 16.1 0.00 0.00 0.00 65
20260507150727 8 228 12.9 16.1 0.00 0.00 0.00 60
20260507142727 8 243 14.5 17.7 0.00 0.00 0.00 57
20260507140726 9 244 9.7 14.5 0.00 0.00 0.00 47
20260507134726 10 225 8.0 11.3 0.00 0.00 0.00 35
20260507132726 10 231 8.0 11.3 0.00 0.00 0.00 39
20260507130726 9 252 9.7 11.3 0.00 0.00 0.00 41
20260507124726 11 235 6.4 11.3 0.00 0.00 0.00 41
20260507122725 11 166 4.8 8.0 0.00 0.00 0.00 34
20260507120726 8 160 6.4 9.7 0.00 0.00 0.00 62